Content
SEND FEEDBACK

Daily
Averages
Monthly
Summary
United States of America

HAZLETON, PENNSYLVANIA


Home > North America > United States > Pennsylvania
Elevation: 1785 feet     Latitude: 41 01N     Longitude: 075 54W

WEATHER
 
SELECT A DAY
Number of Records: 220,147;   Date Range: 1/1/95 - 12/16/14
 
SHARE

PRINT THIS DATA

[ ← Previous Day ]
WEATHER ALMANAC - OCTOBER 25, 2013
[ Next Day → ]
[ °C ]   °F
Weather ElementAverageHighLow
Temperature40 °F48 °F (1:54 pm)33.1 °F (10:54 pm)
Dewpoint30.8 °F35.1 °F (5:54 pm)28.9 °F (1:54 am)
Humidity71.3 %92 % (10:54 pm)48 % (1:54 pm)
Barometer30.15 in30.22 in (8:54 pm)30.04 in (1:54 am)
Wind Speed6.1 mph10.4 mph (1:54 am)
Wind Gust19.6 mph (12:54 pm)
Weather ElementAverage
Visibility10 mi
Wind DirectionS (183 °)

Weather ElementTotal
Precipitation---
Heating Degree Days24.5 (Base 65)
Averaged from 27 records on October 25, 2013
WEATHER CONDITIONS BREAKOUT
WIND DIRECTION BREAKOUT
WEATHER BY HOUR - OCTOBER 25, 2013
[ °C ]   °F
Local TimeTemperatureDewpointHumidityBarometerVisibilityWind DirectionWind SpeedGust SpeedPrecipitationEventsConditions
1:54 AM37.9 °F28.9 °F70 %30.04 in10.0 miSW (230°)10.4 mphOvercast
2:54 AM37.0 °F28.9 °F73 %30.05 in10.0 miWSW (240°)9.2 mphOvercast
3:54 AM37.0 °F28.9 °F73 %30.06 in10.0 miVariable6.9 mphOvercast
4:54 AM37.0 °F30.0 °F76 %30.07 in10.0 miSW (230°)6.9 mphOvercast
5:54 AM36.0 °F28.9 °F76 %30.09 in10.0 miSSW (210°)5.8 mphScattered Clouds
6:54 AM37.0 °F30.0 °F76 %30.11 in10.0 miSW (220°)5.8 mphOvercast
7:17 AM37.4 °F30.2 °F75 %30.10 in10.0 miVariable4.6 mphOvercast
7:39 AM35.6 °F30.2 °F81 %30.11 in10.0 miSW (230°)5.8 mphOvercast
7:54 AM37.0 °F30.0 °F76 %30.13 in10.0 miSW (230°)9.2 mphOvercast
8:44 AM37.4 °F30.2 °F75 %30.13 in10.0 miSW (230°)8.1 mphOvercast
8:54 AM37.0 °F30.9 °F79 %30.15 in10.0 miWSW (240°)10.4 mphOvercast
9:54 AM39.0 °F30.9 °F73 %30.17 in10.0 miSW (220°)5.8 mph0.00 inOvercast
10:41 AM42.8 °F32.0 °F66 %30.15 in10.0 miWSW (240°)6.9 mphOvercast
10:54 AM42.1 °F32.0 °F67 %30.17 in10.0 miSW (220°)4.6 mphOvercast
11:54 AM46.0 °F30.9 °F56 %30.18 in10.0 miNW (310°)8.1 mph17.3 mphPartly Cloudy
12:54 PM46.0 °F28.9 °F51 %30.17 in10.0 miNW (310°)10.4 mph19.6 mphMostly Cloudy
1:54 PM48.0 °F28.9 °F48 %30.16 in10.0 miNNW (330°)9.2 mphOvercast
2:54 PM46.9 °F28.9 °F50 %30.16 in10.0 miVariable4.6 mphOvercast
3:54 PM48.0 °F28.9 °F48 %30.16 in10.0 miNW (310°)6.9 mphOvercast
4:54 PM48.0 °F30.9 °F52 %30.16 in10.0 miWest (280°)10.4 mphOvercast
5:54 PM42.1 °F35.1 °F76 %30.19 in10.0 miWest (270°)5.8 mph0.00 inMostly Cloudy
6:54 PM42.1 °F35.1 °F76 %30.20 in10.0 miCalmMostly Cloudy
7:54 PM37.9 °F35.1 °F89 %30.21 in10.0 miCalmScattered Clouds
8:54 PM37.9 °F34.0 °F86 %30.22 in10.0 miCalmScattered Clouds
9:54 PM37.9 °F33.1 °F83 %30.22 in10.0 miCalmPartly Cloudy
10:54 PM33.1 °F30.9 °F92 %30.22 in10.0 miSouth (170°)3.5 mphClear
11:54 PM35.1 °F30.0 °F82 %30.22 in10.0 miSW (220°)4.6 mphClear
Hourly data recorded from KAVP, located miles away from Hazleton, Pennsylvania







STORIES FROM OUR PARTNERS